Location: MAC-Johnson Site
(33.6264°N, 81.2093°W)
Time: 13:24:08
(UTC-04:00)

ISS - Visible Passes

Search period start: 08 September 2024 00:00
Search period end: 18 September 2024 00:00
Orbit: 415 x 425 km, 51.6° (Epoch: 08 September)

Date Brightness Start Highest point End Pass type
(mag) Time Alt. Az. Time Alt. Az. Time Alt. Az.
08 Sep -3.9 05:41:47 33° NW 05:43:09 81° SW 05:46:34 10° SE visible
08 Sep -2.3 20:44:19 10° S 20:46:20 21° SSE 20:46:20 21° SSE visible
09 Sep -1.3 04:58:09 19° ESE 04:58:09 19° ESE 04:59:16 10° ESE visible
09 Sep -1.6 06:31:15 10° WSW 06:32:24 11° SW 06:33:34 10° SW visible
09 Sep -2.3 21:33:09 10° WSW 21:35:35 38° W 21:35:35 38° W visible
10 Sep -1.2 05:47:46 11° S 05:47:46 11° S 05:47:54 10° S visible
10 Sep -3.9 20:45:44 10° SW 20:49:04 89° S 20:51:22 19° NE visible
11 Sep -3.4 19:58:34 10° SSW 20:01:45 44° SE 20:04:58 10° ENE visible
11 Sep -1.1 21:36:24 10° WNW 21:38:43 17° NNW 21:39:48 15° N visible
12 Sep -1.7 20:48:15 10° W 20:51:09 27° NW 20:54:04 10° NNE visible
13 Sep -2.7 20:00:22 10° WSW 20:03:35 46° NW 20:06:51 10° NE visible
14 Sep -0.7 20:52:00 10° NW 20:53:16 12° NNW 20:54:33 10° N visible
15 Sep -1.0 20:03:09 10° WNW 20:05:27 17° NNW 20:07:47 10° NNE visible
